Miscellaneous Local Product
Issued by NWS Hastings, NE

Home | Current Version | Previous Version | Text Only | Print | Product List | Glossary On
Versions: 1 2 3 4 5 6 7 8 9 10 11 12 13 14 15 16 17 18 19 20 21 22 23 24 25 26 27 28 29 30 31 32 33 34 35 36 37 38 39 40 41 42 43 44 45 46 47 48 49 50
000
AXUS43 KGID 262302
MISGRI

GID CWA HOURLY WEATHER ROUNDUP
NATIONAL WEATHER SERVICE HASTINGS NE
500 PM CST MON JAN 26 2015

NOTE: "FAIR" INDICATES FEW OR NO CLOUDS BELOW 12,000 FEET WITH NO
SIGNIFICANT WEATHER AND/OR OBSTRUCTIONS TO VISIBILITY.

...SOUTH CENTRAL NEBRASKA...

CITY           SKY/WX    TMP DP  RH WIND       PRES   REMARKS
GRAND ISLAND   CLEAR     60  35  39 NW9       30.02R
HASTINGS       CLEAR     62  31  31 N10       30.01R
KEARNEY        CLEAR     63  32  31 N9        30.02S
ORD            CLEAR     58  33  39 N6        30.00R
YORK           CLEAR     59  32  36 NW13      29.99R
AURORA         CLEAR     60  33  35 NW7       30.00S
LEXINGTON      CLEAR     64  32  30 N9        30.03S
HOLDREGE       CLEAR     66  30  26 NW13      30.02S
HEBRON         CLEAR     64  26  23 NW14      30.00R

...NEBRASKA PANHANDLE...

CITY           SKY/WX    TMP DP  RH WIND       PRES   REMARKS
CHADRON        CLEAR     64  35  34 W9        30.05F
ALLIANCE       CLEAR     60  38  43 W8        30.08F
SCOTTSBLUFF    CLEAR     62  34  35 W12       30.10F
SIDNEY         CLEAR     64  30  27 NW10      30.14S

...WESTERN AND NORTH CENTRAL NEBRASKA...

CITY           SKY/WX    TMP DP  RH WIND       PRES   REMARKS
VALENTINE      CLEAR     60  32  34 NW12      30.02S
AINSWORTH      CLEAR     55  35  47 N5        30.02S
ONEILL         CLEAR     56  33  42 NW7       30.01R
BROKEN BOW     CLEAR     62  33  33 NW13G23   30.02S
IMPERIAL       CLEAR     65  30  27 NW8       30.10S
NORTH PLATTE   CLEAR     63  30  28 NW13      30.05S
MCCOOK         CLEAR     68  30  24 NW12      30.06S

...EASTERN NEBRASKA...

CITY           SKY/WX    TMP DP  RH WIND       PRES   REMARKS
NORFOLK        CLEAR     54  33  45 NW8       29.98R
SO SIOUX CITY  CLEAR     52  37  56 NW13      29.95R
TEKAMAH        CLEAR     54  36  50 NW13      29.97R
COLUMBUS       CLEAR     55  30  38 NW10      30.00S
ALBION         CLEAR     57  29  33 N7        30.00R
OMAHA EPPLEY   PTCLDY    54  35  48 NW14      29.96R
OFFUTT AFB     CLEAR     56  34  43 NW12      29.96R
MILLARD        CLEAR     58  34  41 NW13G22   29.96R
LINCOLN        CLEAR     59  32  36 NW9       29.99R
NEBRASKA CITY  CLEAR     55  26  33 N10       29.97R
BEATRICE       CLEAR     61  30  31 NW13      29.98R
FALLS CITY     CLEAR     58  31  35 NW10      29.95R

...NORTHERN KANSAS...

CITY           SKY/WX    TMP DP  RH WIND       PRES   REMARKS
GOODLAND       CLEAR     65  31  28 N9        30.13F
HILL CITY      CLEAR     71  28  20 NW17G26   30.05R
NORTON         CLEAR     68  25  19 NW13      30.04R
PHILLIPSBURG   CLEAR     72  30  21 NW12      30.03R
SMITH CENTER   CLEAR     66  32  28 NW10      30.02R
BELOIT         CLEAR     66  32  28 N12G18    30.00R
HAYS           CLEAR     70  30  23 NW16      30.05R
RUSSELL        CLEAR     69  31  24 N16       30.02R
CONCORDIA      CLEAR     65  33  30 N10       30.00R
SALINA         CLEAR     68  33  27 N10       30.00R
TOPEKA         CLEAR     64  30  27 NW13      29.95R



USA.gov is the U.S. government's official web portal to all federal, state and local government web resources and services.